Change the Weather History Date:

Wednesday, April 10, 2013

  Actual Average Record
Temperature  
Mean Temperature 56 °F 49 °F  
Max Temperature 77 °F 62 °F 83 °F (1989)
Min Temperature 34 °F 37 °F 17 °F (1927)
Degree Days  
Heating Degree Days 9 16  
Month to date heating degree days 132 164  
Since 1 July heating degree days 4093 4400  
Cooling Degree Days 0 0  
Month to date cooling degree days 0 0  
Year to date cooling degree days 0 0  
Growing Degree Days 6 (Base 50)    
Moisture  
Dew Point 27 °F    
Average Humidity 39    
Maximum Humidity 61    
Minimum Humidity 16    
Precipitation  
Precipitation 0.00 in 0.01 in 0.55 in (1906)
Month to date precipitation 0.03 0.16  
Year to date precipitation 0.44 2.97  
Snow  
Snow 0.00 in 0.10 in 1.00 in (1953)
Month to date snowfall T 0.3  
Since 1 July snowfall 9.4 21.3  
Snow Depth 0.00 in    
Sea Level Pressure  
Sea Level Pressure 30.14 in    
Wind  
Wind Speed 5 mph (West)    
Max Wind Speed 24 mph    
Max Gust Speed 30 mph    
Visibility 10 miles    
Events      
T = Trace of Precipitation, MM = Missing Value Source: NWS Daily Summary

Daily Weather History Graph

Daily Weather History Graph

Search for Another Location

Airport or City:

Trip Planner

Search our weather history database for the weather conditions in past years. The results will help you decide how hot, cold, wet, or windy it might be!

Date:

Astronomy

Apr. 10, 2013 Rise Set
Actual Time 6:28 AM PDT 7:32 PM PDT
Civil Twilight 6:01 AM PDT 7:59 PM PDT
Nautical Twilight 5:28 AM PDT 8:32 PM PDT
Astronomical Twilight 4:54 AM PDT 9:07 PM PDT
Moon 6:27 AM PDT (4/10) 8:12 PM PDT (4/10)
Length of Visible Light 13h 58m
Length of Day
13h 03m
New Moon, 0% of the Moon is Illuminated
Apr 10
New Moon
Apr 18
First Quarter
Apr 25
Full
May 2
Last Quarter
May 9
New

Hourly Weather History & Observations

Time (PDT) Temp. Windchill Dew Point Humidity Pressure Visibility Wind Dir Wind Speed Gust Speed Precip Events Conditions
12:55 AM 42.1 °F 39.2 °F 21.0 °F 43% 30.23 in 10.0 mi SSE 4.6 mph - N/A   Clear
1:55 AM 42.1 °F - 21.0 °F 43% 30.22 in 10.0 mi Calm Calm - N/A   Clear
2:55 AM 39.9 °F - 21.9 °F 49% 30.21 in 10.0 mi Calm Calm - N/A   Clear
3:55 AM 39.0 °F - 23.0 °F 53% 30.22 in 10.0 mi Calm Calm - N/A   Clear
4:55 AM 35.1 °F 31.0 °F 21.0 °F 57% 30.24 in 10.0 mi SSW 4.6 mph - N/A   Clear
5:55 AM 36.0 °F - 21.9 °F 57% 30.25 in 10.0 mi Calm Calm - N/A   Scattered Clouds
6:55 AM 34.0 °F 31.0 °F 21.9 °F 61% 30.28 in 10.0 mi South 3.5 mph - N/A   Scattered Clouds
7:55 AM 42.1 °F - 23.0 °F 47% 30.29 in 10.0 mi Calm Calm - N/A   Scattered Clouds
8:55 AM 45.0 °F - 23.0 °F 42% 30.30 in 10.0 mi Calm Calm - N/A   Partly Cloudy
9:55 AM 51.8 °F - 24.8 °F 35% 30.32 in 10.0 mi Calm Calm - N/A   Partly Cloudy
10:55 AM 57.2 °F - 24.8 °F 29% 30.32 in 10.0 mi Calm Calm - N/A   Partly Cloudy
11:55 AM 62.6 °F - 28.4 °F 27% 30.29 in 10.0 mi SSE 3.5 mph - N/A   Scattered Clouds
12:55 PM 64.0 °F - 28.9 °F 27% 30.19 in 10.0 mi SE 6.9 mph - N/A   Scattered Clouds
1:55 PM 68.0 °F - 30.9 °F 25% 30.14 in 10.0 mi NNW 3.5 mph - N/A   Scattered Clouds
2:55 PM 71.1 °F - 30.0 °F 22% 30.09 in 10.0 mi Variable 4.6 mph - N/A   Scattered Clouds
3:55 PM 72.0 °F - 27.0 °F 19% 30.04 in 10.0 mi North 5.8 mph 16.1 mph N/A   Mostly Cloudy
4:55 PM 73.9 °F - 25.0 °F 16% 30.01 in 10.0 mi WNW 11.5 mph 16.1 mph N/A   Mostly Cloudy
5:55 PM 72.0 °F - 28.0 °F 20% 30.00 in 10.0 mi NW 20.7 mph 27.6 mph N/A   Mostly Cloudy
6:55 PM 69.1 °F - 35.1 °F 29% 30.01 in 10.0 mi WNW 13.8 mph 23.0 mph N/A   Mostly Cloudy
7:55 PM 66.0 °F - 34.0 °F 30% 30.00 in 10.0 mi West 11.5 mph - N/A   Mostly Cloudy
8:55 PM 64.0 °F - 30.9 °F 29% 30.01 in 10.0 mi West 10.4 mph - N/A   Mostly Cloudy
9:55 PM 63.0 °F - 32.0 °F 31% 29.99 in 10.0 mi WNW 6.9 mph - N/A   Mostly Cloudy
10:55 PM 61.0 °F - 34.0 °F 36% 29.97 in 10.0 mi Variable 4.6 mph 16.1 mph N/A   Mostly Cloudy
11:55 PM 60.1 °F - 35.1 °F 39% 29.95 in 10.0 mi Variable 5.8 mph - N/A   Overcast